This is the latest recevied weather packets stored in our database for station/object W0AKO. If no packets are shown the sender has not sent any weather packets the latest 10 day(s).
| Time | Temp. | Humidity | Pressure | Rain* | Wind** | Luminosity | Snow |
|---|---|---|---|---|---|---|---|
| 1777849603 | 27.78° C | 10% | 1008.8 hPa | 0 mm | - | 44 W/m² | - |
| 1777849300 | 28.89° C | 10% | 1008.9 hPa | 0 mm | - | 38 W/m² | - |
| 1777848997 | 28.89° C | 10% | 1009 hPa | 0 mm | - | 38 W/m² | - |
| 1777848697 | 28.89° C | 10% | 1009 hPa | 0 mm | - | 49 W/m² | - |
| 1777848395 | 28.89° C | 10% | 1008.5 hPa | 0 mm | - | 66 W/m² | - |
| 1777848092 | 29.44° C | 10% | 1008.9 hPa | 0 mm | - | 91 W/m² | - |
| 1777847790 | 29.44° C | 10% | 1008.6 hPa | 0 mm | - | 129 W/m² | - |
| 1777847486 | 29.44° C | 10% | 1008.9 hPa | 0 mm | - | 136 W/m² | - |
| 1777847183 | 29.44° C | 10% | 1009 hPa | 0 mm | - | 161 W/m² | - |
| 1777846881 | 29.44° C | 10% | 1009.3 hPa | 0 mm | - | 184 W/m² | - |
| 1777846579 | 28.89° C | 10% | 1009.2 hPa | 0 mm | - | 199 W/m² | - |
| 1777846277 | 28.89° C | 10% | 1009.6 hPa | 0 mm | - | 158 W/m² | - |
| 1777845973 | 28.33° C | 10% | 1009.5 hPa | 0 mm | - | 329 W/m² | - |
| 1777845670 | 28.89° C | 10% | 1009.6 hPa | 0 mm | - | 349 W/m² | - |
| 1777845367 | 30° C | 10% | 1010.1 hPa | 0 mm | - | 166 W/m² | - |
| 1777845063 | 30.56° C | 10% | 1009.9 hPa | 0 mm | - | 232 W/m² | - |
| 1777844762 | 30° C | 10% | 1009.7 hPa | 0 mm | - | 535 W/m² | - |
| 1777844458 | 30° C | 10% | 1009.5 hPa | 0 mm | - | 484 W/m² | - |
| 1777844157 | 31.11° C | 10% | 1009.9 hPa | 0 mm | - | 683 W/m² | - |
| 1777843853 | 30.56° C | 10% | 1009.8 hPa | 0 mm | - | 728 W/m² | - |
| 1777843550 | 31.11° C | 10% | 1010.2 hPa | 0 mm | - | 649 W/m² | - |
| 1777843248 | 30.56° C | 10% | 1010.3 hPa | 0 mm | - | 799 W/m² | - |
| 1777842945 | 30° C | 10% | 1010.2 hPa | 0 mm | - | 567 W/m² | - |
| 1777842640 | 29.44° C | 10% | 1010.6 hPa | 0 mm | - | 267 W/m² | - |
| 1777842337 | 28.89° C | 10% | 1010.5 hPa | 0 mm | - | 407 W/m² | - |
* Rain latest hour (hover to see other rain measurements)
** Current wind speed in m/s (hover to see current wind gust speed)